Location: ??????
(55.6361°N, 38.0803°E)
Time: 03:10:55
(UTC+00:00)

NOSS 0 Rocket - Pass Details

Date: 30 March 2020
Orbit: 937 x 953 km, 70.0° (Epoch: 30 May)

Event Time Altitude Azimuth Distance (km) Brightness Sun altitude
Rises 00:37:12 0° 323° (NW) 3,614 7.0 -19.5°
Reaches altitude 10° 00:39:44 10° 323° (NW) 2,665 6.3 -19.2°
Maximum altitude 00:45:56 86° 237° (WSW) 949 3.8 -18.5°
Drops below altitude 10° 00:52:05 10° 149° (SSE) 2,647 6.2 -17.8°
Sets 00:54:36 0° 148° (SSE) 3,588 6.9 -17.5°
